[[{"header":{"parameterUnit":"m.s-1","parameterCategory":1,"la1":30.2991,"la2":30.254,"lo1":-89.0895,"lo2":-89.0444,"dy":0.0017,"dx":0.0017,"nx":28,"ny":28,"refTime":"2026-02-15T03:00:00:Z","depth":0,"parameterNumber":2,"parameterNumberName":"U-component_of_WINDS"},"data":[0,0,0,0,0,0,0,0,0,0,0,0,0,0,0,0,0,0,0,0,0,0,0,0,0,0,0,0,0,0,0,0,0,0,0,0,0,0,0,0,0,0,0,0,0,0,0,0,0,0,0,0,0,0,0,0,0,0,-4.9471,-4.9472,0,-4.9558,-4.9559,-4.956,-4.9573,-4.9572,-4.9572,-4.9571,-4.9659,-4.9662,-4.9665,0,0,0,0,0,0,0,0,0,0,0,0,0,-4.9317,-4.932,-4.9471,-4.9472,-4.9473,-4.9558,-4.9559,-4.956,-4.9573,-4.9572,-4.9571,-4.957,-4.9658,-4.9662,-4.9665,0,0,0,0,0,0,0,0,0,0,0,0,0,-4.9392,-4.9321,-4.947,-4.949,-4.9492,-4.9557,-4.9559,-4.956,-4.9573,-4.9572,-4.9571,-4.957,-4.9657,-4.9661,-4.9666,-4.9718,0,0,-4.968,-4.9682,0,0,0,0,0,0,0,0,-4.9388,-4.9398,-4.9486,-4.9488,-4.9491,-4.9553,-4.9537,-4.9613,-4.9574,-4.9543,-4.9571,-4.9569,-4.9625,-4.9632,-4.9651,-4.9722,-4.9725,-4.968,-4.9683,-4.9685,-4.9686,0,0,0,0,0,0,0,-4.9383,-4.9394,-4.9505,-4.9487,-4.9491,-4.9495,-4.9504,-4.9552,-4.9589,-4.9545,-4.9546,-4.9557,-4.9626,-4.9646,-4.9653,-4.9727,-4.968,-4.9684,-4.9687,-4.9689,-4.9848,-4.985,0,0,0,0,0,0,-4.9374,-4.939,-4.9502,-4.9508,-4.9436,-4.9498,-4.9509,-4.9535,-4.9589,-4.9596,-4.9558,-4.9557,-4.9639,-4.9648,-4.9656,-4.9722,-4.9685,-4.9689,-4.9692,-4.9847,-4.9849,-4.985,0,0,0,0,0,0,-4.9371,-4.9384,-4.9499,-4.9449,-4.9464,-4.9502,-4.9531,-4.9537,-4.9557,-4.9598,-4.9605,-4.9571,-4.9638,-4.965,-4.9703,-4.9725,-4.9691,-4.9696,-4.9845,-4.9847,-4.985,-4.9852,0,0,0,0,0,0,-4.9366,-4.9383,-4.9402,-4.945,-4.9467,-4.9543,-4.9533,-4.954,-4.9565,-4.9565,-4.9612,-4.9619,-4.9638,-4.9696,-4.9708,-4.9731,-4.9699,-4.9843,-4.9846,-4.9849,-4.985,-4.9854,-4.9858,0,0,0,0,0,-4.9361,-4.9398,-4.9403,-4.9416,-4.9491,-4.9545,-4.9554,-4.9576,-4.9567,-4.9587,-4.9614,-4.9618,-4.9721,-4.9701,-4.9715,-4.9739,-4.9842,-4.9845,-4.9849,-4.9849,-4.9854,-4.9858,0,0,0,0,0,0,-4.935,-4.9404,-4.941,-4.9464,-4.95,-4.9547,-4.9572,-4.958,-4.9619,-4.9617,-4.9642,-4.9653,-4.9705,-4.9728,-4.9705,-4.9794,-4.9781,-4.9787,-4.9777,-4.9782,-4.9785,-4.9778,-4.9703,0,0,0,0,0,-4.9354,-4.9393,-4.9439,-4.9482,-4.95,-4.9533,-4.9557,-4.9571,-4.9609,-4.9624,-4.9655,-4.9691,-4.9733,-4.9759,-4.9799,-4.9855,-4.9866,-4.9879,-4.9883,-4.9886,-4.989,-4.9924,-4.993,-4.9861,-4.9861,-4.9861,0,0,-4.9363,-4.9397,-4.942,-4.9481,-4.951,-4.955,-4.9546,-4.9587,-4.9618,-4.963,-4.9683,-4.9707,-4.975,-4.9806,-4.9832,-4.9826,-4.9912,-4.989,-4.9892,-4.9895,-4.9928,-4.9934,-4.994,-4.9863,-4.9863,-4.9863,0,0,-4.9398,-4.9428,-4.9469,-4.9499,-4.9545,-4.9568,-4.9578,-4.9625,-4.9642,-4.9695,-4.9707,-4.9744,-4.9813,-4.9844,-4.9869,-4.9923,-4.9928,-4.9935,-4.9953,-4.9986,-4.9992,-4.9997,-5.0016,-5.0023,-4.994,-4.994,-4.994,0,-4.9402,-4.9463,-4.9488,-4.9531,-4.9558,-4.9574,-4.9616,-4.9644,-4.97,-4.9719,-4.9713,-4.9803,-4.9833,-4.9897,-4.9911,-4.993,-4.9943,-4.9928,-4.9989,-4.9994,-4.9999,-5.0018,-5.0025,-4.994,-4.994,-4.994,-4.994,0,-4.9467,-4.9509,-4.9537,-4.9592,-4.9623,-4.9664,-4.9697,-4.9726,-4.9739,-4.9763,-4.9819,-4.9856,-4.9905,-4.9922,-4.9934,-4.999,-4.9985,-4.9984,-4.9971,-5.0006,-5.0024,-5.0032,-4.9941,-4.9941,-4.9941,-4.9941,0,0,-4.9493,-4.9566,-4.9575,-4.9602,-4.9656,-4.9689,-4.9734,-4.9783,-4.9807,-4.9847,-4.9885,-4.9947,-4.9947,-4.9975,-4.9992,-5.0021,-5.0063,-5.0017,-5.0018,-5.0024,-5.0127,-5.0127,-5.0135,-5.0068,-5.0069,-5.0071,-5.0124,0,-4.9535,-4.9614,-4.964,-4.9706,-4.9746,-4.9765,-4.9804,-4.9842,-4.9867,-4.9906,-4.9934,-4.9977,-4.9974,-4.9991,-5.0021,-5.0051,-5.0084,-5.0048,-5.0104,-5.0105,-5.0091,-5.0144,-5.0143,-5.0191,-5.0131,-5.0132,-5.0133,0,-4.9593,-4.9635,-4.9705,-4.9758,-4.9776,-4.981,-4.9859,-4.9896,-4.994,-4.9957,-4.9991,-5.0007,-5.0055,-5.0042,-5.011,-5.0086,-5.0111,-5.013,-5.0132,-5.0137,-5.012,-5.015,-5.0207,-5.0214,-5.0145,-5.0144,-5.0143,0,-4.9606,-4.9681,-4.9733,-4.9755,-4.9817,-4.9841,-4.9868,-4.9912,-4.9941,-4.9985,-5.0004,-5.0053,-5.0079,-5.0117,-5.0146,-5.0133,-5.0212,-5.0201,-5.0228,-5.0227,-5.0241,-5.0239,-5.0302,-5.026,-5.0259,-5.0259,-5.0259,0,-4.9648,-4.9691,-4.974,-4.9772,-4.9821,-4.9852,-4.99,-4.9928,-4.9968,-5.0006,-5.0026,-5.0062,-5.0099,-5.014,-5.0164,-5.0218,-5.023,-5.0245,-5.025,-5.0242,-5.024,-5.0257,-5.0254,-5.0261,-5.0261,-5.026,-5.026,0,-4.9669,-4.9704,-4.9762,-4.9818,-4.9833,-4.9867,-4.9914,-4.9947,-4.9975,-5.0024,-5.0037,-5.0081,-5.0131,-5.0165,-5.0229,-5.0245,-5.0304,-5.0309,-5.0288,-5.0291,-5.0316,-5.0313,-5.0391,-5.0403,-5.0353,-5.0353,-5.0354,0,-4.9693,-4.9727,-4.9787,-4.9815,-4.9842,-4.9887,-4.9917,-4.9951,-4.9982,-5.0039,-5.0065,-5.0117,-5.016,-5.024,-5.0278,-5.0328,-5.0334,-5.0358,-5.0341,-5.0333,-5.0334,-5.0331,-5.0335,-5.036,-5.036,-5.0361,-5.0361,0,-4.9733,-4.9749,-4.9793,-4.9844,-4.9881,-4.9922,-4.9964,-4.9986,-5.0027,-5.0062,-5.0114,-5.0148,-5.0215,-5.0267,-5.0321,-5.035,-5.0363,-5.0367,-5.0375,-5.0366,-5.0353,-5.0361,-5.0295,-5.0364,-5.0363,-5.0363,-5.0363,-5.0363,-4.9756,-4.9787,-4.9836,-4.9884,-4.992,-4.996,-4.9994,-5.0028,-5.0072,-5.0129,-5.0147,-5.0202,-5.025,-5.0325,-5.0355,-5.0399,-5.0397,-5.0409,-5.0413,-5.0415,-5.0415,-5.0348,-5.041,-5.041,-5.0409,-5.0409,-5.0409,0,-4.9796,-4.9829,-4.9874,-4.9933,-4.9972,-4.9983,-5.0031,-5.0063,-5.0111,-5.0155,-5.0198,-5.026,-5.0312,-5.0355,-5.0409,-5.0437,-5.0444,-5.0449,-5.0447,-5.0454,-5.0414,-5.0401,-5.0443,-5.0443,-5.0443,-5.0443,-5.0443,-5.0443,-4.9821,-4.9876,-4.9899,-4.9972,-5.0006,-5.006,-5.0086,-5.0124,-5.0159,-5.0228,-5.0271,-5.03,-5.0345,-5.0403,-5.0451,-5.0463,-5.0482,-5.0486,-5.0499,-5.046,-5.0456,-5.0452,-5.044,-5.049,-5.049,-5.0535,-5.0535,-5.0536]},{"header":{"parameterUnit":"m.s-1","parameterCategory":1,"la1":30.2991,"la2":30.254,"lo1":-89.0895,"lo2":-89.0444,"dy":0.0017,"dx":0.0017,"nx":28,"ny":28,"refTime":"2026-02-15T03:00:00:Z","depth":0,"parameterNumber":3,"parameterNumberName":"V-component_of_WINDS"},"data":[0,0,0,0,0,0,0,0,0,0,0,0,0,0,0,0,0,0,0,0,0,0,0,0,0,0,0,0,0,0,0,0,0,0,0,0,0,0,0,0,0,0,0,0,0,0,0,0,0,0,0,0,0,0,0,0,0,0,3.0638,3.0638,0,3.0667,3.0667,3.0667,3.0741,3.0742,3.0744,3.0745,3.077,3.0769,3.0768,0,0,0,0,0,0,0,0,0,0,0,0,0,3.0645,3.0644,3.0638,3.0638,3.0639,3.0667,3.0667,3.0667,3.074,3.0742,3.0744,3.0746,3.077,3.0769,3.0768,0,0,0,0,0,0,0,0,0,0,0,0,0,3.0654,3.0644,3.0638,3.0679,3.0683,3.0667,3.0667,3.0668,3.074,3.0742,3.0745,3.0747,3.077,3.0769,3.0768,3.0713,0,0,3.0764,3.0764,0,0,0,0,0,0,0,0,3.0654,3.0654,3.0672,3.0676,3.068,3.0703,3.0678,3.0683,3.0739,3.0718,3.0745,3.0748,3.0745,3.0746,3.0746,3.0714,3.0715,3.0764,3.0763,3.0763,3.0762,0,0,0,0,0,0,0,3.0653,3.0653,3.0649,3.0672,3.0677,3.0695,3.0699,3.068,3.0718,3.072,3.0725,3.0728,3.0748,3.0747,3.0747,3.0716,3.0764,3.0763,3.0762,3.0762,3.0645,3.0643,0,0,0,0,0,0,3.0647,3.0652,3.0648,3.065,3.0673,3.0693,3.0697,3.0693,3.0718,3.0725,3.0726,3.0731,3.0748,3.0749,3.0748,3.0689,3.0763,3.0762,3.0761,3.0647,3.0644,3.0642,0,0,0,0,0,0,3.0647,3.0646,3.0647,3.0653,3.0654,3.069,3.0685,3.0692,3.0692,3.0723,3.073,3.0719,3.075,3.075,3.0723,3.0691,3.0761,3.076,3.065,3.0646,3.0643,3.0568,0,0,0,0,0,0,3.0646,3.0645,3.0625,3.0652,3.0654,3.0621,3.0683,3.0691,3.069,3.0697,3.0718,3.0723,3.0752,3.0724,3.0722,3.0691,3.0759,3.0653,3.0648,3.0644,3.0574,3.0562,3.0553,0,0,0,0,0,3.0646,3.0601,3.0624,3.0623,3.0629,3.0619,3.062,3.0655,3.0687,3.0668,3.0688,3.0723,3.0695,3.0721,3.0718,3.0686,3.0655,3.065,3.0645,3.0578,3.0565,3.0553,0,0,0,0,0,0,3.0566,3.0605,3.063,3.0592,3.0602,3.0632,3.0607,3.0639,3.0639,3.0646,3.0688,3.0692,3.0659,3.067,3.0698,3.0637,3.0681,3.0675,3.0631,3.0619,3.0608,3.0607,3.0758,0,0,0,0,0,3.0545,3.0535,3.0568,3.0531,3.0535,3.057,3.0567,3.0594,3.0605,3.0609,3.0628,3.0636,3.063,3.0625,3.062,3.0576,3.0582,3.0553,3.0542,3.0534,3.0528,3.0509,3.0497,3.0624,3.0624,3.0624,0,0,3.0499,3.0519,3.0509,3.0516,3.0527,3.0515,3.0573,3.0557,3.055,3.0606,3.0583,3.0597,3.061,3.0574,3.056,3.0582,3.0495,3.0527,3.052,3.0519,3.0502,3.049,3.0479,3.0621,3.0621,3.0622,0,0,3.0411,3.0424,3.0396,3.0407,3.0424,3.0449,3.0442,3.0467,3.048,3.0458,3.0501,3.0492,3.0479,3.0488,3.049,3.0409,3.0442,3.0406,3.0352,3.0333,3.0323,3.0314,3.0288,3.0277,3.04,3.04,3.04,0,3.0351,3.0337,3.0377,3.0361,3.0363,3.0417,3.039,3.0398,3.0412,3.0412,3.0438,3.0426,3.0438,3.0407,3.0388,3.0387,3.0382,3.0404,3.0321,3.0313,3.0305,3.0281,3.027,3.0396,3.0396,3.0397,3.0397,0,3.0265,3.0254,3.023,3.0245,3.0245,3.0222,3.026,3.0255,3.0282,3.0304,3.0282,3.0299,3.03,3.0295,3.032,3.0268,3.0282,3.0314,3.0359,3.0288,3.0266,3.0256,3.039,3.0391,3.0393,3.0394,0,0,3.0125,3.0166,3.0157,3.0166,3.019,3.0183,3.0164,3.0168,3.0164,3.0172,3.0158,3.0148,3.0179,3.0182,3.0208,3.0191,3.013,3.0225,3.0226,3.0209,3.0077,3.0055,3.0043,3.0151,3.015,3.0148,3.0077,0,3.0044,3.0015,3.0053,3.0016,3.0009,3.0061,3.0045,3.0059,3.0079,3.0075,3.0097,3.0091,3.013,3.0133,3.0118,3.014,3.0104,3.0145,3.0139,3.0139,3.0136,3.0031,3.0006,2.9937,3.0068,3.0066,3.0065,0,2.9944,2.9952,2.9915,2.9946,2.9944,2.9929,2.9938,2.9933,2.995,2.9966,2.9972,3.0005,2.9989,3.0033,3.0012,3.004,3.004,3.0051,3.0049,3.005,3.0098,3.0031,2.9916,2.9907,3.0051,3.0053,3.0054,0,2.985,2.985,2.9829,2.9835,2.9869,2.9858,2.9872,2.9891,2.9892,2.99,2.9901,2.9905,2.9908,2.991,2.9944,2.9973,2.9921,2.9966,2.9934,2.9934,2.9921,2.9922,2.9807,2.9918,2.9919,2.9919,2.9919,0,2.9756,2.9732,2.9788,2.9775,2.9751,2.9794,2.9769,2.9787,2.9805,2.9797,2.9841,2.9833,2.9878,2.9874,2.99,2.9881,2.9881,2.9894,2.9902,2.9891,2.989,2.9892,2.9898,2.9916,2.9917,2.9917,2.9918,0,2.9646,2.9682,2.9663,2.9699,2.9707,2.9688,2.9718,2.9708,2.9732,2.9722,2.9722,2.976,2.9758,2.9793,2.9797,2.9815,2.9785,2.9799,2.978,2.9785,2.9752,2.9756,2.9636,2.9623,2.9741,2.974,2.9739,0,2.9584,2.9568,2.9603,2.9602,2.9614,2.9611,2.9614,2.9657,2.9658,2.9678,2.9666,2.9669,2.9673,2.9668,2.9696,2.97,2.9717,2.9675,2.9717,2.9709,2.9719,2.972,2.972,2.9665,2.9664,2.9663,2.9662,0,2.9472,2.9492,2.9495,2.9506,2.9509,2.9518,2.953,2.9526,2.9574,2.9572,2.9573,2.9577,2.9583,2.9586,2.9596,2.961,2.9644,2.9648,2.9642,2.9631,2.9621,2.9629,2.9757,2.9651,2.9652,2.9653,2.9653,2.9654,2.9386,2.9376,2.94,2.9403,2.9417,2.9429,2.9422,2.9448,2.9449,2.946,2.9485,2.9482,2.9502,2.952,2.953,2.9529,2.9549,2.9539,2.9536,2.9534,2.9529,2.9621,2.953,2.953,2.9531,2.9531,2.9531,0,2.9279,2.9298,2.9301,2.9318,2.9321,2.9355,2.9371,2.9371,2.9369,2.9385,2.939,2.9392,2.9396,2.9425,2.9432,2.9425,2.9441,2.9426,2.9427,2.943,2.9508,2.9515,2.9413,2.9413,2.9413,2.9413,2.9413,2.9413,2.9224,2.9209,2.9232,2.9225,2.9244,2.9243,2.925,2.9261,2.9275,2.9276,2.9281,2.93,2.9323,2.9332,2.9338,2.9346,2.9347,2.9327,2.9341,2.9413,2.9424,2.9435,2.9442,2.9326,2.9326,2.9264,2.9263,2.9262]}]]